[[{"header":{"parameterUnit":"m.s-1","parameterCategory":1,"la1":30.2991,"la2":30.254,"lo1":-89.0895,"lo2":-89.0444,"dy":0.0017,"dx":0.0017,"nx":28,"ny":28,"refTime":"2025-03-30T21:00:00:Z","depth":0,"parameterNumber":2,"parameterNumberName":"U-component_of_WINDS"},"data":[0,0,0,0,0,0,0,0,0,0,0,0,0,0,0,0,0,0,0,0,0,0,0,0,0,0,0,0,0,0,0,0,0,0,0,0,0,0,0,0,0,0,0,0,0,0,0,0,0,0,0,0,0,0,0,0,0,0,0.9102,0.9102,0,0.913,0.9131,0.9131,0.9117,0.9117,0.9116,0.9115,0.9149,0.915,0.9152,0,0,0,0,0,0,0,0,0,0,0,0,0,0.9039,0.904,0.9102,0.9102,0.9102,0.913,0.9131,0.9131,0.9118,0.9117,0.9116,0.9115,0.9148,0.915,0.9152,0,0,0,0,0,0,0,0,0,0,0,0,0,0.9067,0.9041,0.9102,0.9099,0.9099,0.913,0.9131,0.9131,0.9118,0.9117,0.9116,0.9115,0.9147,0.915,0.9152,0.9189,0,0,0.9159,0.916,0,0,0,0,0,0,0,0,0.9066,0.9069,0.9099,0.9099,0.9099,0.9119,0.9121,0.9151,0.9118,0.9111,0.9115,0.9114,0.914,0.9143,0.9151,0.919,0.9192,0.9159,0.9161,0.9162,0.9163,0,0,0,0,0,0,0,0.9064,0.9068,0.9113,0.9099,0.91,0.9098,0.91,0.9126,0.9131,0.9111,0.911,0.9114,0.914,0.9148,0.9151,0.9192,0.9159,0.9161,0.9163,0.9164,0.9265,0.9266,0,0,0,0,0,0,0.9061,0.9067,0.9112,0.9114,0.9079,0.91,0.9103,0.9114,0.9131,0.9132,0.9115,0.9113,0.9145,0.9149,0.9153,0.9198,0.9162,0.9164,0.9165,0.9264,0.9265,0.9267,0,0,0,0,0,0,0.906,0.9065,0.9111,0.909,0.9096,0.9102,0.9115,0.9115,0.9124,0.9133,0.9135,0.9122,0.9144,0.9149,0.918,0.9199,0.9165,0.9167,0.9262,0.9264,0.9266,0.9288,0,0,0,0,0,0,0.9058,0.9065,0.9078,0.909,0.9097,0.9137,0.9116,0.9116,0.9127,0.9125,0.9141,0.9143,0.9144,0.9176,0.9182,0.9201,0.9169,0.9261,0.9263,0.9265,0.9285,0.929,0.9294,0,0,0,0,0,0.9056,0.9083,0.9079,0.9084,0.9113,0.9138,0.9142,0.9141,0.9129,0.9143,0.9149,0.9142,0.9195,0.918,0.9186,0.9206,0.926,0.9262,0.9265,0.9283,0.9289,0.9294,0,0,0,0,0,0,0.9074,0.9085,0.908,0.9112,0.9124,0.9135,0.9153,0.9147,0.9164,0.9162,0.9162,0.9165,0.9198,0.9205,0.9187,0.9243,0.9226,0.923,0.9237,0.9243,0.9247,0.9245,0.9171,0,0,0,0,0,0.9082,0.9099,0.9109,0.9136,0.9142,0.9146,0.9157,0.9156,0.9169,0.9174,0.9183,0.9197,0.9217,0.923,0.9249,0.9286,0.929,0.9303,0.9308,0.9311,0.9315,0.9337,0.9343,0.9276,0.9276,0.9276,0,0,0.9098,0.9106,0.9117,0.914,0.9149,0.9169,0.9151,0.9173,0.9188,0.9178,0.9207,0.9214,0.923,0.9264,0.928,0.9272,0.9335,0.9315,0.9318,0.932,0.934,0.9347,0.9352,0.9278,0.9278,0.9277,0,0,0.9137,0.9145,0.9169,0.9178,0.9192,0.9195,0.9201,0.9213,0.9217,0.9246,0.924,0.9259,0.9293,0.9305,0.9315,0.936,0.9355,0.9367,0.939,0.9411,0.9416,0.9421,0.9439,0.9445,0.9371,0.9371,0.9371,0,0.9156,0.9184,0.9182,0.9205,0.9215,0.9206,0.9232,0.9242,0.9261,0.927,0.926,0.9303,0.9313,0.935,0.9361,0.937,0.9378,0.9365,0.9416,0.942,0.9425,0.9441,0.9448,0.9372,0.9372,0.9372,0.9372,0,0.9207,0.9227,0.9245,0.9264,0.9277,0.93,0.9303,0.9317,0.9315,0.9319,0.935,0.9362,0.9383,0.9392,0.939,0.943,0.9424,0.9415,0.9398,0.9432,0.9448,0.9454,0.9374,0.9373,0.9373,0.9373,0,0,0.9259,0.9276,0.9283,0.9292,0.9307,0.9323,0.9347,0.9367,0.9379,0.9394,0.9415,0.9444,0.9436,0.9448,0.9448,0.9466,0.9503,0.9455,0.9455,0.9464,0.9549,0.9556,0.9564,0.9499,0.95,0.9501,0.9548,0,0.93,0.9341,0.934,0.9379,0.9398,0.9391,0.9412,0.9424,0.9429,0.9448,0.9454,0.9475,0.9462,0.9469,0.9487,0.9494,0.952,0.9491,0.9521,0.9522,0.9518,0.9572,0.9579,0.9623,0.9554,0.9555,0.9556,0,0.9354,0.9369,0.9409,0.9423,0.9431,0.945,0.9469,0.9486,0.9501,0.9503,0.9517,0.9514,0.954,0.9522,0.9559,0.9539,0.9551,0.9557,0.9559,0.9562,0.9541,0.9578,0.9637,0.9644,0.9565,0.9564,0.9564,0,0.9389,0.942,0.9448,0.9456,0.9471,0.9485,0.9493,0.9506,0.9518,0.9536,0.9544,0.9564,0.9576,0.9593,0.9596,0.9582,0.9634,0.9615,0.9638,0.9638,0.965,0.965,0.9713,0.9656,0.9656,0.9656,0.9656,0,0.9436,0.9461,0.9464,0.9482,0.951,0.951,0.9539,0.9545,0.9557,0.9577,0.9572,0.9591,0.9594,0.9615,0.9618,0.9649,0.9654,0.9658,0.9659,0.9659,0.9659,0.9668,0.9665,0.9658,0.9658,0.9657,0.9657,0,0.948,0.9482,0.9513,0.9525,0.9529,0.955,0.9561,0.9579,0.9584,0.9609,0.9615,0.9623,0.9647,0.9651,0.968,0.9682,0.972,0.9717,0.9714,0.9715,0.9738,0.9736,0.981,0.982,0.9756,0.9757,0.9757,0,0.9509,0.9529,0.9543,0.9556,0.9564,0.9584,0.9596,0.9597,0.9611,0.963,0.9646,0.9669,0.9687,0.9726,0.9735,0.9757,0.9756,0.978,0.9759,0.9759,0.9757,0.9757,0.9759,0.9784,0.9785,0.9786,0.9786,0,0.9563,0.9564,0.9581,0.96,0.9615,0.963,0.9645,0.9656,0.9659,0.9675,0.9698,0.9713,0.9742,0.9765,0.9788,0.9797,0.9793,0.9792,0.9799,0.98,0.9798,0.9801,0.9727,0.9791,0.979,0.979,0.979,0.979,0.9602,0.9619,0.9632,0.9652,0.9663,0.9677,0.9694,0.9701,0.972,0.9743,0.9743,0.9769,0.9785,0.9814,0.9825,0.9847,0.984,0.9849,0.9852,0.9854,0.9857,0.9794,0.9851,0.9851,0.9851,0.9851,0.9851,0,0.9656,0.9664,0.9682,0.9702,0.9719,0.9712,0.9728,0.9743,0.9766,0.978,0.9799,0.9827,0.985,0.9861,0.9884,0.99,0.9899,0.9906,0.9905,0.9908,0.9862,0.9854,0.9907,0.9907,0.9907,0.9907,0.9907,0.9906,0.9686,0.9715,0.9717,0.9752,0.9761,0.9786,0.9796,0.9809,0.982,0.9852,0.9871,0.9877,0.9891,0.9915,0.9937,0.994,0.9949,0.9958,0.996,0.9917,0.9911,0.9906,0.9898,0.9959,0.9959,1.0004,1.0005,1.0005]},{"header":{"parameterUnit":"m.s-1","parameterCategory":1,"la1":30.2991,"la2":30.254,"lo1":-89.0895,"lo2":-89.0444,"dy":0.0017,"dx":0.0017,"nx":28,"ny":28,"refTime":"2025-03-30T21:00:00:Z","depth":0,"parameterNumber":3,"parameterNumberName":"V-component_of_WINDS"},"data":[0,0,0,0,0,0,0,0,0,0,0,0,0,0,0,0,0,0,0,0,0,0,0,0,0,0,0,0,0,0,0,0,0,0,0,0,0,0,0,0,0,0,0,0,0,0,0,0,0,0,0,0,0,0,0,0,0,0,2.4549,2.455,0,2.462,2.4621,2.4622,2.465,2.465,2.4649,2.4649,2.4723,2.4725,2.4727,0,0,0,0,0,0,0,0,0,0,0,0,0,2.444,2.4442,2.4549,2.455,2.4551,2.462,2.4621,2.4622,2.465,2.4649,2.4649,2.4649,2.4722,2.4724,2.4727,0,0,0,0,0,0,0,0,0,0,0,0,0,2.4497,2.4443,2.4549,2.4573,2.4576,2.462,2.4621,2.4622,2.465,2.4649,2.4649,2.4649,2.4721,2.4724,2.4727,2.4753,0,0,2.4737,2.4738,0,0,0,0,0,0,0,0,2.4494,2.4501,2.4569,2.4572,2.4575,2.4626,2.461,2.4666,2.465,2.4622,2.4649,2.4649,2.4691,2.4696,2.471,2.4756,2.4759,2.4737,2.4739,2.4741,2.4742,0,0,0,0,0,0,0,2.449,2.4498,2.4577,2.457,2.4574,2.4581,2.4589,2.462,2.4657,2.4624,2.4626,2.4634,2.4692,2.4707,2.4712,2.476,2.4737,2.474,2.4742,2.4743,2.4833,2.4833,0,0,0,0,0,0,2.4482,2.4495,2.4575,2.458,2.4533,2.4583,2.4592,2.461,2.4657,2.4664,2.4635,2.4635,2.4702,2.4708,2.4715,2.4749,2.4741,2.4744,2.4746,2.4832,2.4833,2.4834,0,0,0,0,0,0,2.4479,2.4488,2.4572,2.4538,2.4549,2.4586,2.4605,2.4611,2.4626,2.4665,2.4671,2.4643,2.4702,2.471,2.4744,2.4752,2.4745,2.4748,2.4832,2.4833,2.4833,2.4817,0,0,0,0,0,0,2.4476,2.4487,2.4497,2.4538,2.4551,2.4599,2.4606,2.4613,2.4632,2.4633,2.4674,2.4681,2.4702,2.4739,2.4747,2.4756,2.4751,2.4831,2.4832,2.4833,2.4817,2.4817,2.4817,0,0,0,0,0,2.4472,2.4489,2.4497,2.4507,2.4563,2.4599,2.4607,2.4631,2.4632,2.4642,2.4667,2.4679,2.475,2.4742,2.4751,2.4762,2.4831,2.4832,2.4833,2.4817,2.4817,2.4817,0,0,0,0,0,0,2.4448,2.4495,2.4504,2.4535,2.4563,2.4604,2.4618,2.463,2.4659,2.4659,2.4689,2.4698,2.4729,2.4749,2.4739,2.479,2.4791,2.4794,2.4776,2.4776,2.4776,2.4771,2.4753,0,0,0,0,0,2.4446,2.4472,2.4511,2.4535,2.4548,2.458,2.4597,2.4614,2.4644,2.4656,2.4683,2.4712,2.4742,2.476,2.4788,2.482,2.483,2.4832,2.4832,2.4832,2.4834,2.4854,2.4856,2.4837,2.4837,2.4837,0,0,2.4443,2.4472,2.4486,2.4531,2.4554,2.4581,2.459,2.4617,2.4637,2.466,2.4693,2.4714,2.4749,2.4782,2.4798,2.48,2.4842,2.4833,2.4833,2.4835,2.4855,2.4857,2.4859,2.4838,2.4838,2.4837,0,0,2.4451,2.4475,2.4498,2.4522,2.4557,2.4579,2.4584,2.4624,2.4639,2.4673,2.4691,2.4716,2.4764,2.4789,2.4808,2.4827,2.484,2.4835,2.4836,2.4855,2.4857,2.4858,2.4866,2.4869,2.4838,2.4837,2.4837,0,2.4443,2.4482,2.4508,2.4535,2.4554,2.4577,2.4601,2.4623,2.4666,2.468,2.4681,2.4744,2.4769,2.4808,2.4813,2.4827,2.4835,2.4831,2.4854,2.4856,2.4858,2.4866,2.4869,2.4837,2.4837,2.4837,2.4837,0,2.4471,2.4499,2.4513,2.4555,2.4576,2.4601,2.4631,2.465,2.4665,2.4687,2.4722,2.4753,2.4789,2.48,2.4814,2.4842,2.4842,2.4848,2.485,2.4858,2.4867,2.487,2.4836,2.4836,2.4836,2.4836,0,0,2.4465,2.4522,2.4527,2.4547,2.4589,2.4611,2.4638,2.4673,2.4689,2.4719,2.4743,2.4784,2.4791,2.4812,2.483,2.4847,2.4862,2.4851,2.4853,2.4853,2.4896,2.4892,2.4895,2.487,2.4871,2.4872,2.4894,0,2.4479,2.4528,2.4553,2.4591,2.4618,2.464,2.4664,2.4692,2.4714,2.474,2.4764,2.4794,2.4799,2.4813,2.483,2.4856,2.4871,2.4855,2.4894,2.4895,2.4886,2.4899,2.4894,2.4913,2.4897,2.4898,2.4898,0,2.4502,2.4532,2.4573,2.4614,2.4626,2.4646,2.4682,2.4706,2.474,2.4755,2.4779,2.4797,2.4828,2.4827,2.487,2.4859,2.4877,2.4892,2.4894,2.4899,2.4898,2.4906,2.492,2.4923,2.4903,2.4903,2.4902,0,2.4495,2.4546,2.4577,2.4593,2.4641,2.4655,2.4676,2.471,2.473,2.4761,2.4775,2.4809,2.4828,2.4854,2.4882,2.4879,2.4923,2.4924,2.4937,2.4936,2.4945,2.4945,2.4964,2.4955,2.4955,2.4955,2.4955,0,2.4509,2.4533,2.4575,2.4594,2.4623,2.4652,2.468,2.4702,2.4732,2.4757,2.4779,2.4802,2.4836,2.4864,2.4885,2.4919,2.4927,2.494,2.4946,2.4939,2.4937,2.4951,2.4951,2.4956,2.4956,2.4956,2.4955,0,2.4505,2.4534,2.457,2.4613,2.4625,2.4644,2.4681,2.4701,2.4724,2.4756,2.4765,2.4802,2.4836,2.4865,2.491,2.4925,2.496,2.4966,2.4948,2.4951,2.4963,2.4962,2.4992,2.4999,2.4984,2.4985,2.4985,0,2.4512,2.4532,2.4577,2.4596,2.4616,2.4645,2.4666,2.4696,2.4717,2.4758,2.4774,2.481,2.484,2.4894,2.4925,2.496,2.4968,2.4976,2.4973,2.4966,2.4969,2.4968,2.4971,2.4976,2.4976,2.4976,2.4976,0,2.4522,2.4536,2.4565,2.4601,2.4625,2.4654,2.4684,2.4698,2.4733,2.4756,2.4792,2.4815,2.4862,2.4897,2.4936,2.4958,2.4974,2.4977,2.4982,2.4975,2.4965,2.4972,2.4949,2.4976,2.4976,2.4976,2.4976,2.4976,2.4525,2.4544,2.458,2.4612,2.4638,2.4666,2.4688,2.4714,2.4744,2.4784,2.48,2.4836,2.4872,2.4925,2.4948,2.4977,2.498,2.4987,2.4989,2.499,2.499,2.4959,2.4984,2.4984,2.4984,2.4984,2.4984,0,2.4537,2.4561,2.4591,2.4632,2.4659,2.4671,2.4705,2.4726,2.4758,2.4789,2.4819,2.4861,2.4896,2.493,2.4968,2.4985,2.4993,2.4994,2.4993,2.4999,2.4984,2.4977,2.4987,2.4987,2.4987,2.4987,2.4987,2.4987,2.4546,2.458,2.4598,2.4645,2.467,2.4706,2.4724,2.4751,2.4776,2.4822,2.4851,2.4873,2.4907,2.4947,2.498,2.499,2.5003,2.5002,2.5013,2.5,2.4999,2.4999,2.4992,2.5005,2.5005,2.5025,2.5025,2.5026]}]]